Voltar ao catálogo

STARLINK-2480

AtivoComunicaçõesVLEO
NORAD 48137·PAYLOAD·🇺🇸 United States

Lançado Apr 7, 2021 de Cape Canaveral Space Force Station

Loading…

Próximas Passagens (próximas 24 horas)

TLE

AtualizadoSource: CelesTrak SupGP

Época: Sep 15, 2026, 00:43 UTC

1 48137C 21027AX  26258.03034722  .00006911  00000+0  22222-3 0  2586
2 48137  53.1601 354.1948 0001354  83.7869 134.7534 15.31698969    14

Acompanhe STARLINK-2480 em tempo real com AllMySat

Download on the App Store